Time,TemperatureF,DewpointF,PressureIn,WindDirection,WindDirectionDegrees,WindSpeedMPH,WindSpeedGustMPH,Humidity,HourlyPrecipIn,Conditions,Clouds,dailyrainin,SoftwareType,DateUTC
2013-06-05 00:14:00,55.6,50.0,29.98,SW,218,0.0,-999.0,82,-99.99,,,0.00,weatherlink.com 1.10,2013-06-05 07:14:00,
2013-06-05 00:29:00,55.6,50.0,29.98,SSE,150,1.0,-999.0,82,-99.99,,,0.00,weatherlink.com 1.10,2013-06-05 07:29:00,
2013-06-05 00:44:00,55.4,50.0,29.98,WSW,239,1.0,-999.0,82,-99.99,,,0.00,weatherlink.com 1.10,2013-06-05 07:44:00,
2013-06-05 00:59:00,55.6,50.0,29.98,SW,226,0.0,-999.0,82,-99.99,,,0.00,weatherlink.com 1.10,2013-06-05 07:59:00,
2013-06-05 01:14:00,55.4,50.0,29.98,South,181,0.0,-999.0,82,-99.99,,,0.00,weatherlink.com 1.10,2013-06-05 08:14:00,
2013-06-05 01:29:00,55.3,50.0,29.98,WSW,244,2.0,-999.0,82,-99.99,,,0.00,weatherlink.com 1.10,2013-06-05 08:29:00,
2013-06-05 01:44:00,55.1,50.0,29.98,WSW,252,0.0,-999.0,83,-99.99,,,0.00,weatherlink.com 1.10,2013-06-05 08:44:00,
2013-06-05 02:00:00,55.0,50.0,29.97,ENE,78,0.0,-999.0,83,-99.99,,,0.00,weatherlink.com 1.10,2013-06-05 09:00:00,
2013-06-05 02:15:00,54.8,50.0,29.98,South,171,0.0,-999.0,83,-99.99,,,0.00,weatherlink.com 1.10,2013-06-05 09:15:00,
2013-06-05 02:30:00,54.7,50.0,29.98,WNW,296,0.0,-999.0,83,-99.99,,,0.00,weatherlink.com 1.10,2013-06-05 09:30:00,
2013-06-05 02:45:00,54.7,50.0,29.97,NE,42,0.0,-999.0,84,-99.99,,,0.00,weatherlink.com 1.10,2013-06-05 09:45:00,
2013-06-05 03:00:00,54.4,50.0,29.97,SW,217,0.0,-999.0,84,-99.99,,,0.00,weatherlink.com 1.10,2013-06-05 10:00:00,
2013-06-05 03:15:00,54.4,50.0,29.97,South,178,0.0,-999.0,84,-99.99,,,0.00,weatherlink.com 1.10,2013-06-05 10:15:00,
2013-06-05 03:30:00,54.2,50.0,29.97,SW,218,0.0,-999.0,84,-99.99,,,0.00,weatherlink.com 1.10,2013-06-05 10:30:00,
2013-06-05 03:45:00,54.1,49.0,29.96,SSW,195,0.0,-999.0,84,-99.99,,,0.00,weatherlink.com 1.10,2013-06-05 10:45:00,
2013-06-05 04:00:00,54.1,49.0,29.97,WSW,249,0.0,-999.0,83,-99.99,,,0.00,weatherlink.com 1.10,2013-06-05 11:00:00,
2013-06-05 04:15:00,54.1,49.0,29.97,South,181,0.0,-999.0,83,-99.99,,,0.00,weatherlink.com 1.10,2013-06-05 11:15:00,
2013-06-05 04:30:00,53.9,49.0,29.96,SW,215,3.0,-999.0,83,-99.99,,,0.00,weatherlink.com 1.10,2013-06-05 11:30:00,
2013-06-05 04:45:00,53.9,49.0,29.96,SSW,204,2.0,-999.0,83,-99.99,,,0.00,weatherlink.com 1.10,2013-06-05 11:45:00,
2013-06-05 05:00:00,53.9,49.0,29.96,SSW,202,0.0,-999.0,83,-99.99,,,0.00,weatherlink.com 1.10,2013-06-05 12:00:00,
2013-06-05 05:15:00,53.9,49.0,29.96,South,172,0.0,-999.0,83,-99.99,,,0.00,weatherlink.com 1.10,2013-06-05 12:15:00,
2013-06-05 05:30:00,53.8,49.0,29.96,SSW,200,0.0,-999.0,83,-99.99,,,0.00,weatherlink.com 1.10,2013-06-05 12:30:00,
2013-06-05 05:45:00,53.8,49.0,29.97,SW,227,0.0,-999.0,84,-99.99,,,0.00,weatherlink.com 1.10,2013-06-05 12:45:00,
2013-06-05 06:00:00,53.6,49.0,29.97,WSW,253,0.0,-999.0,84,-99.99,,,0.00,weatherlink.com 1.10,2013-06-05 13:00:00,
2013-06-05 06:15:00,53.6,49.0,29.97,SSW,201,0.0,-999.0,84,-99.99,,,0.00,weatherlink.com 1.10,2013-06-05 13:15:00,
2013-06-05 06:30:00,53.8,49.0,29.98,SSW,201,0.0,-999.0,84,-99.99,,,0.00,weatherlink.com 1.10,2013-06-05 13:30:00,
2013-06-05 06:45:00,53.8,49.0,29.98,SW,221,0.0,-999.0,84,-99.99,,,0.00,weatherlink.com 1.10,2013-06-05 13:45:00,
2013-06-05 07:00:00,53.9,49.0,29.98,SW,224,0.0,-999.0,83,-99.99,,,0.00,weatherlink.com 1.10,2013-06-05 14:00:00,
2013-06-05 07:15:00,53.9,49.0,29.98,WSW,239,0.0,-999.0,83,-99.99,,,0.00,weatherlink.com 1.10,2013-06-05 14:15:00,
2013-06-05 07:30:00,54.1,49.0,29.98,NW,325,0.0,-999.0,83,-99.99,,,0.00,weatherlink.com 1.10,2013-06-05 14:30:00,
2013-06-05 07:45:00,54.5,49.0,29.98,South,182,0.0,-999.0,83,-99.99,,,0.00,weatherlink.com 1.10,2013-06-05 14:45:00,
2013-06-05 08:00:00,54.7,49.0,29.98,SW,219,0.0,-999.0,82,-99.99,,,0.00,weatherlink.com 1.10,2013-06-05 15:00:00,
2013-06-05 08:15:00,55.0,49.0,29.99,SW,219,0.0,-999.0,81,-99.99,,,0.00,weatherlink.com 1.10,2013-06-05 15:15:00,
2013-06-05 08:30:00,55.1,49.0,30.00,SSE,164,1.0,-999.0,81,-99.99,,,0.00,weatherlink.com 1.10,2013-06-05 15:30:00,
2013-06-05 08:45:00,55.6,50.0,30.00,SSW,193,0.0,-999.0,81,-99.99,,,0.00,weatherlink.com 1.10,2013-06-05 15:45:00,
2013-06-05 09:00:00,55.9,50.0,30.00,SW,223,2.0,-999.0,80,-99.99,,,0.00,weatherlink.com 1.10,2013-06-05 16:00:00,
2013-06-05 09:15:00,56.0,50.0,30.00,SW,223,0.0,-999.0,79,-99.99,,,0.00,weatherlink.com 1.10,2013-06-05 16:15:00,
2013-06-05 09:30:00,56.3,50.0,30.00,SW,221,0.0,-999.0,79,-99.99,,,0.00,weatherlink.com 1.10,2013-06-05 16:30:00,
2013-06-05 09:45:00,56.3,50.0,30.00,NNW,328,0.0,-999.0,78,-99.99,,,0.00,weatherlink.com 1.10,2013-06-05 16:45:00,
2013-06-05 10:00:00,56.7,50.0,30.00,WSW,250,2.0,-999.0,78,-99.99,,,0.00,weatherlink.com 1.10,2013-06-05 17:00:00,
2013-06-05 10:15:00,56.9,50.0,30.00,SSE,168,0.0,-999.0,77,-99.99,,,0.00,weatherlink.com 1.10,2013-06-05 17:15:00,
2013-06-05 10:30:00,56.7,50.0,30.00,SW,233,1.0,-999.0,78,-99.99,,,0.00,weatherlink.com 1.10,2013-06-05 17:30:00,
2013-06-05 10:45:00,57.3,50.0,30.00,SW,231,0.0,-999.0,77,-99.99,,,0.00,weatherlink.com 1.10,2013-06-05 17:45:00,
2013-06-05 11:00:00,57.3,50.0,30.00,West,267,2.0,-999.0,77,-99.99,,,0.00,weatherlink.com 1.10,2013-06-05 18:00:00,
2013-06-05 11:15:00,58.0,50.0,30.00,WSW,243,0.0,-999.0,75,-99.99,,,0.00,weatherlink.com 1.10,2013-06-05 18:15:00,
2013-06-05 11:30:00,58.9,51.0,30.00,SSW,200,0.0,-999.0,74,-99.99,,,0.00,weatherlink.com 1.10,2013-06-05 18:30:00,
2013-06-05 12:00:00,60.1,50.0,30.00,WSW,246,0.0,-999.0,70,-99.99,,,0.00,weatherlink.com 1.10,2013-06-05 19:00:00,
2013-06-05 12:15:00,61.2,51.0,30.00,SW,222,0.0,-999.0,69,-99.99,,,0.00,weatherlink.com 1.10,2013-06-05 19:15:00,
2013-06-05 12:30:00,61.6,50.0,29.99,South,178,0.0,-999.0,67,-99.99,,,0.00,weatherlink.com 1.10,2013-06-05 19:30:00,
2013-06-05 12:45:00,62.6,51.0,29.98,SSE,166,4.0,-999.0,66,-99.99,,,0.00,weatherlink.com 1.10,2013-06-05 19:45:00,
2013-06-05 13:00:00,62.7,51.0,29.98,SSW,200,2.0,-999.0,65,-99.99,,,0.00,weatherlink.com 1.10,2013-06-05 20:00:00,
2013-06-05 13:15:00,63.9,52.0,29.98,West,260,0.0,-999.0,65,-99.99,,,0.00,weatherlink.com 1.10,2013-06-05 20:15:00,
2013-06-05 13:30:00,63.5,51.0,29.98,South,179,1.0,-999.0,64,-99.99,,,0.00,weatherlink.com 1.10,2013-06-05 20:30:00,
2013-06-05 13:45:00,64.3,51.0,29.98,SE,143,1.0,-999.0,62,-99.99,,,0.00,weatherlink.com 1.10,2013-06-05 20:45:00,
2013-06-05 14:00:00,63.4,51.0,29.98,WNW,298,0.0,-999.0,64,-99.99,,,0.00,weatherlink.com 1.10,2013-06-05 21:00:00,
2013-06-05 14:15:00,62.7,51.0,29.98,West,274,4.0,-999.0,66,-99.99,,,0.00,weatherlink.com 1.10,2013-06-05 21:15:00,
2013-06-05 14:30:00,62.6,50.0,29.98,NW,311,2.0,-999.0,64,-99.99,,,0.00,weatherlink.com 1.10,2013-06-05 21:30:00,
2013-06-05 15:00:00,62.7,51.0,29.98,SW,218,3.0,-999.0,66,-99.99,,,0.00,weatherlink.com 1.10,2013-06-05 22:00:00,
2013-06-05 15:31:00,62.0,50.0,29.97,SW,230,0.0,-999.0,66,-99.99,,,0.00,weatherlink.com 1.10,2013-06-05 22:31:00,
2013-06-05 15:45:00,62.0,51.0,29.97,WSW,239,4.0,-999.0,68,-99.99,,,0.00,weatherlink.com 1.10,2013-06-05 22:45:00,
2013-06-05 16:00:00,62.7,51.0,29.96,South,169,0.0,-999.0,65,-99.99,,,0.00,weatherlink.com 1.10,2013-06-05 23:00:00,
2013-06-05 16:16:00,62.1,51.0,29.96,ENE,78,0.0,-999.0,68,-99.99,,,0.00,weatherlink.com 1.10,2013-06-05 23:16:00,
2013-06-05 16:31:00,62.3,51.0,29.96,WSW,242,1.0,-999.0,66,-99.99,,,0.00,weatherlink.com 1.10,2013-06-05 23:31:00,
2013-06-05 16:46:00,61.8,51.0,29.96,WSW,257,0.0,-999.0,67,-99.99,,,0.00,weatherlink.com 1.10,2013-06-05 23:46:00,
2013-06-05 17:01:00,61.5,51.0,29.96,SSW,211,1.0,-999.0,68,-99.99,,,0.00,weatherlink.com 1.10,2013-06-06 00:01:00,
2013-06-05 17:16:00,62.0,51.0,29.95,SW,235,0.0,-999.0,68,-99.99,,,0.00,weatherlink.com 1.10,2013-06-06 00:16:00,
2013-06-05 17:31:00,60.9,51.0,29.95,SW,229,2.0,-999.0,69,-99.99,,,0.00,weatherlink.com 1.10,2013-06-06 00:31:00,
2013-06-05 17:46:00,61.2,51.0,29.96,SSW,212,3.0,-999.0,69,-99.99,,,0.00,weatherlink.com 1.10,2013-06-06 00:46:00,
2013-06-05 18:01:00,59.3,51.0,29.95,WNW,294,0.0,-999.0,73,-99.99,,,0.00,weatherlink.com 1.10,2013-06-06 01:01:00,
2013-06-05 18:16:00,58.7,50.0,29.95,West,273,4.0,-999.0,74,-99.99,,,0.00,weatherlink.com 1.10,2013-06-06 01:16:00,
2013-06-05 18:31:00,57.6,50.0,29.95,South,179,1.0,-999.0,77,-99.99,,,0.00,weatherlink.com 1.10,2013-06-06 01:31:00,
2013-06-05 18:46:00,56.7,50.0,29.95,SW,219,2.0,-999.0,79,-99.99,,,0.00,weatherlink.com 1.10,2013-06-06 01:46:00,
2013-06-05 19:01:00,56.5,50.0,29.96,WSW,237,2.0,-999.0,80,-99.99,,,0.00,weatherlink.com 1.10,2013-06-06 02:01:00,
2013-06-05 19:16:00,55.9,50.0,29.95,SW,221,0.0,-999.0,81,-99.99,,,0.00,weatherlink.com 1.10,2013-06-06 02:16:00,
2013-06-05 19:31:00,55.4,50.0,29.95,WSW,248,1.0,-999.0,83,-99.99,,,0.00,weatherlink.com 1.10,2013-06-06 02:31:00,
2013-06-05 19:46:00,55.3,51.0,29.96,South,176,2.0,-999.0,84,-99.99,,,0.00,weatherlink.com 1.10,2013-06-06 02:46:00,
2013-06-05 20:01:00,55.1,50.0,29.95,ENE,78,0.0,-999.0,84,-99.99,,,0.00,weatherlink.com 1.10,2013-06-06 03:01:00,
2013-06-05 20:16:00,55.0,51.0,29.95,West,266,0.0,-999.0,85,-99.99,,,0.00,weatherlink.com 1.10,2013-06-06 03:16:00,
2013-06-05 20:31:00,54.5,50.0,29.96,SW,223,0.0,-999.0,86,-99.99,,,0.00,weatherlink.com 1.10,2013-06-06 03:31:00,
2013-06-05 20:46:00,54.4,51.0,29.96,WSW,248,1.0,-999.0,87,-99.99,,,0.00,weatherlink.com 1.10,2013-06-06 03:46:00,
2013-06-05 21:01:00,54.1,50.0,29.96,SW,228,0.0,-999.0,87,-99.99,,,0.00,weatherlink.com 1.10,2013-06-06 04:01:00,
2013-06-05 21:16:00,53.9,50.0,29.96,SSE,159,0.0,-999.0,87,-99.99,,,0.00,weatherlink.com 1.10,2013-06-06 04:16:00,
2013-06-05 21:31:00,53.9,50.0,29.96,SSW,203,0.0,-999.0,87,-99.99,,,0.00,weatherlink.com 1.10,2013-06-06 04:31:00,
2013-06-05 21:46:00,53.8,50.0,29.97,SE,145,0.0,-999.0,87,-99.99,,,0.00,weatherlink.com 1.10,2013-06-06 04:46:00,
2013-06-05 22:01:00,53.8,50.0,29.97,South,175,2.0,-999.0,88,-99.99,,,0.00,weatherlink.com 1.10,2013-06-06 05:01:00,
2013-06-05 22:16:00,53.5,50.0,29.97,WNW,287,0.0,-999.0,88,-99.99,,,0.00,weatherlink.com 1.10,2013-06-06 05:16:00,
2013-06-05 22:31:00,53.5,50.0,29.97,WSW,248,0.0,-999.0,89,-99.99,,,0.00,weatherlink.com 1.10,2013-06-06 05:31:00,
2013-06-05 22:46:00,53.6,51.0,29.97,WSW,254,0.0,-999.0,89,-99.99,,,0.00,weatherlink.com 1.10,2013-06-06 05:46:00,
2013-06-05 23:01:00,53.6,51.0,29.97,SSW,203,0.0,-999.0,89,-99.99,,,0.00,weatherlink.com 1.10,2013-06-06 06:01:00,
2013-06-05 23:16:00,53.6,51.0,29.96,South,187,0.0,-999.0,89,-99.99,,,0.00,weatherlink.com 1.10,2013-06-06 06:16:00,
2013-06-05 23:31:00,53.5,50.0,29.97,NW,312,1.0,-999.0,89,-99.99,,,0.00,weatherlink.com 1.10,2013-06-06 06:31:00,
2013-06-05 23:46:00,53.3,50.0,29.97,WSW,239,0.0,-999.0,89,-99.99,,,0.00,weatherlink.com 1.10,2013-06-06 06:46:00,